Regional Weather Roundup
Issued by NWS Austin/San Antonio, TX

Home | Current Version | Previous Version | Text Only | Print | Product List | Glossary On
Versions: 1 2 3 4 5 6 7 8 9 10 11 12 13 14 15 16 17 18 19 20 21 22 23 24 25 26 27 28 29 30 31 32 33 34 35 36 37 38 39 40 41 42 43 44 45 46 47 48 49 50
000
ASUS44 KEWX 211310
RWREWX
SOUTH TEXAS REGIONAL WEATHER ROUNDUP
NATIONAL WEATHER SERVICE AUSTIN/SAN ANTONIO TX
800 AM CDT SUN APR 21 2019

NOTE: "FAIR" INDICATED FEW OR NO CLOUDS BELOW 12,000 FEET WITH NO
SIGNIFICANT WEATHER AND/OR OBSTRUCTIONS TO VISIBILITY.

* - THESE STATIONS ARE NOT NWS OR FAA STATIONS...AND ARE NOT SUBJECT
    TO NWS AND FAA QUALITY CONTROL.

TXZ171-172-183>190-211400-
TEXAS HILL COUNTRY AND EDWARDS PLATEAU

CITY           SKY/WX    TMP DP  RH WIND       PRES   REMARKS
JUNCTION       PTSUNNY   61  56  83 CALM      29.94R
*LLANO         SUNNY     64  55  72 S6        29.98R
BURNET         SUNNY     60  56  86 S9        29.98R
*HORSESHOE BAY SUNNY     63  55  75 S8        29.96R
*KERRVILLE     CLOUDY    61  58  88 SE14      29.98R
*FREDERICKSBRG CLOUDY    61  56  83 S15       29.98R
*ROCKSPRINGS   FOG       57  57 100 SE16      29.99R VSB 1
*BOERNE STAGE  CLOUDY    59  59 100 S9        30.00S
*CASTROVILLE   CLOUDY    62  61  98 E5        29.99S
HONDO          CLOUDY    65  61  87 SE9       29.97R
*UVALDE        CLOUDY    61  60  96 SE8       29.96R
DEL RIO        MOCLDY    62  55  77 E8        29.91R
LAUGHLIN AFB   CLOUDY    61  57  85 SE10      29.92R
CARRIZO SPRGS  CLOUDY    63  61  94 SE5       29.92R
*FAITH RANCH   CLOUDY    66  63  88 SE12G20   29.91R
$$

TXZ173-191>194-202-209-217>225-228-211400-
CENTRAL AND SOUTH CENTRAL TEXAS

CITY           SKY/WX    TMP DP  RH WIND       PRES   REMARKS
GEORGETOWN     CLOUDY    61  59  93 S13G22    29.99R
AUSTIN/BERGSTM FOG       59  59 100 S9        29.98R VSB 1/4
AUSTIN/MABRY   CLOUDY    60  57  89 S5        29.99R FOG
*AUSTIN/EXEC   FOG       59  59 100 S9        29.99R VSB<1/4
*LAGO VISTA    PTSUNNY   58  58  98 S8        29.98R
SAN MARCOS     FOG       55  55 100 SE6       30.00R VSB<1/4
NEW BRAUNFELS  MOSUNNY   58  57  97 SW3       29.98R FOG
RANDOLPH AFB   PTSUNNY   55  55 100 CALM      29.99R
PT SAN ANTONIO CLOUDY    62  62 100 SE7       29.96R
SAN ANTONIO    CLOUDY    63  60  90 S9        29.99R
STINSON FIELD  CLOUDY    63  59  87 E5        29.97R
*LA GRANGE     SUNNY     61  61 100 S6        29.99R
*GIDDINGS      SUNNY     61  61 100 S6        30.00R
*GONZALES      FOG       60  60 100 SE5       29.99S VSB 3/4
$$

TXZ163>164-176>182-195>201-210>213-226-227-235-211400-
SOUTHEAST TEXAS

CITY           SKY/WX    TMP DP  RH WIND       PRES   REMARKS
COLLEGE STN    SUNNY     60  58  92 S9        30.01R
*BRYAN         SUNNY     58  58 100 SE7       30.02R
*CALDWELL      SUNNY     58  58  99 S5        30.01R FOG
*CROCKETT        N/A     57  54  88 SE7       30.06R
*BRENHAM       SUNNY     58  58 100 SE5       30.02R
HUNTSVILLE     SUNNY     62  55  77 S6        30.02R
CONROE         MOSUNNY   57  56  96 CALM      30.04R
HOUSTON BUSH   MOSUNNY   63  60  90 SE9       30.04R
HOUSTON HOBBY  FAIR      63  58  83 SE8       30.03R
*HOUSTON SW AP FAIR      58  58 100 SE3       30.05R
PEARLAND       FAIR      62  59  90 SE5       30.05R
HOUSTON HOOKS  FAIR      59  58  96 SE3       30.03R
ELLINGTON FLD  SUNNY     63  57  82 SE3       30.04R
SUGAR LAND     FAIR      62  58  86 SE8       30.03R
*HOUSTON EXEC  FAIR      61  59  94 S6        30.04R
*CLEVELAND MUN FAIR      53  53 100 CALM      30.05S FOG
*WHARTON       SUNNY     59  57  94 SE3       30.03R
*COLUMBUS      FAIR      57  53  84 SE3       30.03R
*EAGLE LAKE    SUNNY     59  57  95 S6        30.02
$$

TXZ214>216-236>238-211400-
THE UPPER TEXAS COAST

CITY           SKY/WX    TMP DP  RH WIND       PRES   REMARKS
*ORANGE        FAIR      59  59 100 CALM      30.09R
PORT ARTHUR    FAIR      62  58  86 SE5       30.06R
GALVESTON      FAIR      68  58  70 SE15      30.05R
ANGLETON       FAIR      62  58  86 SE3       30.04R
*BAY CITY      SUNNY     62  61  94 SE6       30.03R
PALACIOS       SUNNY     70  66  87 SE13      30.02R
$$

TXZ229>234-239>247-211400-
TEXAS COASTAL BEND AND RIO GRANDE PLAINS

CITY           SKY/WX    TMP DP  RH WIND       PRES   REMARKS
VICTORIA       SUNNY     63  61  93 SE8       30.00R
*BEEVILLE      SUNNY     63  59  88 E5        29.97R
ROCKPORT       SUNNY     71  63  75 S13G21    29.98R
*PORT ARANSAS  SUNNY     72  65  79 SE15      30.00R
*PORT LAVACA   SUNNY     67  65  94 SE6       30.01R
*INGLESIDE     SUNNY     72  65  80 S13       29.98R
CORPUS CHRISTI MOSUNNY   68  64  87 SE12      29.96R
CORPUS NAS     SUNNY     75  68  78 S15       29.97R
*ROBSTOWN      NOT AVBL
ALICE          SUNNY     65  63  93 SE7       29.95R
KINGSVILLE NAS MOSUNNY   70  64  81 SE16G24   29.95R
COTULLA        CLOUDY    65  62  90 SE15      29.93R
LAREDO         SUNNY     66  63  90 SE12      29.91R
$$

TXZ248>255-211400-
DEEP SOUTH TEXAS

CITY           SKY/WX    TMP DP  RH WIND       PRES   REMARKS
BROWNSVILLE    FAIR      71  66  84 SE12      29.97R
PORT ISABEL    FAIR      71  64  78 SE14      29.96R
HARLINGEN      SUNNY     67  63  87 SE13      29.95R
*HEBBRONVILLE  CLOUDY    65  62  93 S10       29.94R
MCALLEN        SUNNY     70  65  84 SE15      29.93R
*WESLACO       CLOUDY    69  65  85 S14       29.93
FALFURRIAS     SUNNY     67  62  83 SE9       29.94R
EDINBURG       FAIR      70  66  88 SE12      29.94S
*ZAPATA        CLOUDY    67  63  85 SE6       29.91R
$$

TXZ213>215-236>238-242>244-246-247-251-254-255-211400-
CMAN STATIONS

STATION/POSITION TIME  TEMP    WIND        PRES    WAVE
                       AIR SEA DIR/SP/G            HT/PER
                 (UTC) (F)     (DEG/KT/KT) (MB)    (FT/S)
SABINE PASS      1248   67 71  170/  6/  8 1019.8
SEA RIM ST PARK  1200   67     170/  9/ 10 1017.5
NORTH JETTY/GLS  1242   69 68  160/ 12/ 14 1017.3
EAGLE POINT      1242   68 70  170/  9/ 10 1017.5
MORGANS POINT    1242   67 70  130/  5/  8 1017.2
PORT O`CONNOR    1248   70 71  150/ 16/ 19 1015.6
PORT ARANSAS     1200   71 71  150/ 18/ 21 1014.5
MALAQUITE BEACH  1242   73 73  130/ 20/ 21 1014.1
BAFFIN BAY       1242   71 71  140/ 15/ 20 1014.8
PORT ISABEL      1242   72 74  150/ 13/ 16 1015.1
$$



USA.gov is the U.S. government's official web portal to all federal, state and local government web resources and services.